Location: Central Falls
(41.8900°N, 71.3929°W)
Time: 04:40:53
(UTC+00:00)

Vanguard 2 - Pass Details

Date: 08 December 2023
Orbit: 554 x 2918 km, 32.9° (Epoch: 01 March)

Event Time Altitude Azimuth Distance (km) Brightness Sun altitude
Rises 22:16:18 0° 202° (SSW) 6,148 12.8 -11.2°
Reaches altitude 10° 22:21:06 10° 191° (SSW) 5,397 12.3 -12.1°
Maximum altitude 22:33:53 27° 142° (SE) 4,433 11.2 -14.3°
Enters shadow 22:44:59 14° 98° (E) 5,269 11.2 -16.3°
Drops below altitude 10° 22:46:53 10° 93° (E) 5,539 - -16.6°
Sets 22:51:49 0° 83° (E) 6,337 - -17.5°
